Tracking 18673 objects as of 26-June-2017
HD Live streaming from Space Station
objects crossing your sky now

NANOSAT 1B

Track NANOSAT 1B now!
10-day predictions
NANOSAT 1B is classified as:


NORAD ID: 35685
Int'l Code: 2009-041E
Perigee: 582.3 km
Apogee: 665.8 km
Inclination: 98.2 °
Period: 97.0 minutes
Semi major axis: 6995 km
RCS: 0.248 m2 (medium)
Launch date: July 29, 2009
Source: Spain (SPN)
Launch site: TYURATAM MISSILE AND SPACE COMPLEX (TTMTR)

Nanosat 1B is a small testbed for the Spanish space agency. The satellite, stretching about 20 inches [50 cm] in diameter, will demonstrate basic space technologies.
Your satellite tracking list
Your tracking list is empty





NASA's NSSDC Master Catalog

Two Line Element Set (TLE):
1 35685U 09041E   17177.16765577 +.00000135 +00000-0 +22942-4 0  9990
2 35685 098.2404 151.9632 0059715 024.4674 335.9353 14.83946512427598
Source of the keplerian elements: AFSPC